Time,TemperatureF,DewpointF,PressureIn,WindDirection,WindDirectionDegrees,WindSpeedMPH,WindSpeedGustMPH,Humidity,HourlyPrecipIn,Conditions,Clouds,dailyrainin,SolarRadiationWatts/m^2,SoftwareType,DateUTC
2013-05-30 00:23:00,72.0,64.0,-100.00,ESE,122,3.0,5.0,77,0.00,,,0.00,0.000000,,2013-05-30 04:23:00,
2013-05-30 00:33:00,72.0,64.0,-100.00,ESE,122,3.0,5.0,77,0.00,,,0.00,0.000000,,2013-05-30 04:33:00,
2013-05-30 00:42:00,72.0,64.0,-100.00,ESE,122,3.0,5.0,77,0.00,,,0.00,0.000000,,2013-05-30 04:42:00,
2013-05-30 00:53:00,72.0,64.0,-100.00,ESE,122,3.0,5.0,77,0.00,,,0.00,0.000000,,2013-05-30 04:53:00,
2013-05-30 01:22:00,70.0,64.0,-100.00,SE,126,2.0,5.0,82,0.00,,,0.00,0.000000,,2013-05-30 05:22:00,
2013-05-30 01:32:00,70.0,64.0,-100.00,SE,126,2.0,5.0,82,0.00,,,0.00,0.000000,,2013-05-30 05:32:00,
2013-05-30 01:42:00,70.0,64.0,-100.00,SE,126,2.0,5.0,82,0.00,,,0.00,0.000000,,2013-05-30 05:42:00,
2013-05-30 01:52:00,70.0,64.0,-100.00,SE,126,2.0,5.0,82,0.00,,,0.00,0.000000,,2013-05-30 05:52:00,
2013-05-30 02:22:00,69.0,64.0,-100.00,ESE,118,2.0,5.0,85,0.00,,,0.00,0.000000,,2013-05-30 06:22:00,
2013-05-30 02:32:00,69.0,64.0,-100.00,ESE,118,2.0,5.0,85,0.00,,,0.00,0.000000,,2013-05-30 06:32:00,
2013-05-30 02:42:00,69.0,64.0,-100.00,ESE,118,2.0,5.0,85,0.00,,,0.00,0.000000,,2013-05-30 06:42:00,
2013-05-30 02:52:00,69.0,64.0,-100.00,ESE,118,2.0,5.0,85,0.00,,,0.00,0.000000,,2013-05-30 06:52:00,
2013-05-30 03:22:00,70.0,64.0,-100.00,SSE,156,3.0,7.0,80,0.00,,,0.00,0.000000,,2013-05-30 07:22:00,
2013-05-30 03:32:00,70.0,64.0,-100.00,SSE,156,3.0,7.0,80,0.00,,,0.00,0.000000,,2013-05-30 07:32:00,
2013-05-30 03:42:00,70.0,64.0,-100.00,SSE,156,3.0,7.0,80,0.00,,,0.00,0.000000,,2013-05-30 07:42:00,
2013-05-30 03:52:00,70.0,64.0,-100.00,SSE,156,3.0,7.0,80,0.00,,,0.00,0.000000,,2013-05-30 07:52:00,
2013-05-30 04:22:00,70.0,61.0,-100.00,South,177,4.0,8.0,73,0.00,,,0.00,0.000000,,2013-05-30 08:22:00,
2013-05-30 04:32:00,70.0,61.0,-100.00,South,177,4.0,8.0,73,0.00,,,0.00,0.000000,,2013-05-30 08:32:00,
2013-05-30 04:42:00,70.0,61.0,-100.00,South,177,4.0,8.0,73,0.00,,,0.00,0.000000,,2013-05-30 08:42:00,
2013-05-30 04:52:00,70.0,61.0,-100.00,South,177,4.0,8.0,73,0.00,,,0.00,0.000000,,2013-05-30 08:52:00,
2013-05-30 05:22:00,70.0,61.0,-100.00,South,187,4.0,9.0,73,0.00,,,0.00,0.000000,,2013-05-30 09:22:00,
2013-05-30 05:33:00,70.0,61.0,-100.00,South,187,4.0,9.0,73,0.00,,,0.00,0.000000,,2013-05-30 09:33:00,
2013-05-30 05:43:00,70.0,61.0,-100.00,South,187,4.0,9.0,73,0.00,,,0.00,0.000000,,2013-05-30 09:43:00,
2013-05-30 05:53:00,70.0,61.0,-100.00,South,187,4.0,9.0,73,0.00,,,0.00,0.000000,,2013-05-30 09:53:00,
2013-05-30 06:23:00,68.0,60.0,-100.00,SSE,160,3.0,9.0,75,0.00,,,0.00,0.000000,,2013-05-30 10:23:00,
2013-05-30 06:33:00,68.0,60.0,-100.00,SSE,160,3.0,9.0,75,0.00,,,0.00,0.000000,,2013-05-30 10:33:00,
2013-05-30 06:42:00,68.0,60.0,-100.00,SSE,160,3.0,9.0,75,0.00,,,0.00,0.000000,,2013-05-30 10:42:00,
2013-05-30 06:52:00,68.0,60.0,-100.00,SSE,160,3.0,9.0,75,0.00,,,0.00,0.000000,,2013-05-30 10:52:00,
2013-05-30 07:22:00,68.0,60.0,-100.00,South,173,3.0,7.0,76,0.00,,,0.00,8.000000,,2013-05-30 11:22:00,
2013-05-30 07:32:00,68.0,60.0,-100.00,South,173,3.0,7.0,76,0.00,,,0.00,8.000000,,2013-05-30 11:32:00,
2013-05-30 07:42:00,68.0,60.0,-100.00,South,173,3.0,7.0,76,0.00,,,0.00,8.000000,,2013-05-30 11:42:00,
2013-05-30 07:52:00,68.0,60.0,-100.00,South,173,3.0,7.0,76,0.00,,,0.00,8.000000,,2013-05-30 11:52:00,
2013-05-30 08:22:00,70.0,61.0,-100.00,SSE,163,4.0,9.0,74,0.00,,,0.00,51.000000,,2013-05-30 12:22:00,
2013-05-30 08:32:00,70.0,61.0,-100.00,SSE,163,4.0,9.0,74,0.00,,,0.00,51.000000,,2013-05-30 12:32:00,
2013-05-30 08:42:00,70.0,61.0,-100.00,SSE,163,4.0,9.0,74,0.00,,,0.00,51.000000,,2013-05-30 12:42:00,
2013-05-30 08:52:00,70.0,61.0,-100.00,SSE,163,4.0,9.0,74,0.00,,,0.00,51.000000,,2013-05-30 12:52:00,
2013-05-30 09:22:00,74.0,63.0,-100.00,SSW,192,6.0,12.0,68,0.00,,,0.00,161.000000,,2013-05-30 13:22:00,
2013-05-30 09:32:00,74.0,63.0,-100.00,SSW,192,6.0,12.0,68,0.00,,,0.00,161.000000,,2013-05-30 13:32:00,
2013-05-30 09:42:00,74.0,63.0,-100.00,SSW,192,6.0,12.0,68,0.00,,,0.00,161.000000,,2013-05-30 13:42:00,
2013-05-30 09:52:00,74.0,63.0,-100.00,SSW,192,6.0,12.0,68,0.00,,,0.00,161.000000,,2013-05-30 13:52:00,
2013-05-30 10:22:00,77.0,63.0,-100.00,SSW,209,6.0,13.0,62,0.00,,,0.00,301.000000,,2013-05-30 14:22:00,
2013-05-30 10:32:00,77.0,63.0,-100.00,SSW,209,6.0,13.0,62,0.00,,,0.00,301.000000,,2013-05-30 14:32:00,
2013-05-30 10:42:00,77.0,63.0,-100.00,SSW,209,6.0,13.0,62,0.00,,,0.00,301.000000,,2013-05-30 14:42:00,
2013-05-30 10:52:00,77.0,63.0,-100.00,SSW,209,6.0,13.0,62,0.00,,,0.00,301.000000,,2013-05-30 14:52:00,
2013-05-30 12:13:00,82.0,64.0,-100.00,SW,225,6.0,16.0,54,-99.99,,,0.00,495.000000,,2013-05-30 16:13:00,
2013-05-30 12:23:00,82.0,64.0,-100.00,SW,225,6.0,16.0,54,-99.99,,,0.00,495.000000,,2013-05-30 16:23:00,
2013-05-30 12:33:00,82.0,64.0,-100.00,SW,225,6.0,16.0,54,-99.99,,,0.00,495.000000,,2013-05-30 16:33:00,
2013-05-30 12:42:00,82.0,64.0,-100.00,SW,225,6.0,16.0,54,-99.99,,,0.00,495.000000,,2013-05-30 16:42:00,
2013-05-30 12:52:00,82.0,64.0,-100.00,SW,225,6.0,16.0,54,-99.99,,,0.00,495.000000,,2013-05-30 16:52:00,
2013-05-30 13:22:00,84.0,64.0,-100.00,SW,232,5.0,13.0,52,0.00,,,0.00,555.000000,,2013-05-30 17:22:00,
2013-05-30 13:32:00,84.0,64.0,-100.00,SW,232,5.0,13.0,52,0.00,,,0.00,555.000000,,2013-05-30 17:32:00,
2013-05-30 13:42:00,84.0,64.0,-100.00,SW,232,5.0,13.0,52,0.00,,,0.00,555.000000,,2013-05-30 17:42:00,
2013-05-30 13:52:00,84.0,64.0,-100.00,SW,232,5.0,13.0,52,0.00,,,0.00,555.000000,,2013-05-30 17:52:00,
2013-05-30 14:11:00,85.0,66.0,-100.00,SSW,194,5.0,12.0,54,0.00,,,0.00,399.000000,,2013-05-30 18:11:00,
2013-05-30 14:22:00,85.0,66.0,-100.00,SSW,194,5.0,12.0,54,0.00,,,0.00,399.000000,,2013-05-30 18:22:00,
2013-05-30 14:32:00,85.0,66.0,-100.00,SSW,194,5.0,12.0,54,0.00,,,0.00,399.000000,,2013-05-30 18:32:00,
2013-05-30 14:43:00,85.0,66.0,-100.00,SSW,194,5.0,12.0,54,0.00,,,0.00,399.000000,,2013-05-30 18:43:00,
2013-05-30 14:51:00,85.0,66.0,-100.00,SSW,194,5.0,12.0,54,0.00,,,0.00,399.000000,,2013-05-30 18:51:00,
2013-05-30 15:12:00,85.0,66.0,-100.00,SSE,161,6.0,11.0,53,0.00,,,0.00,401.000000,,2013-05-30 19:12:00,
2013-05-30 15:23:00,85.0,66.0,-100.00,SSE,161,6.0,11.0,53,0.00,,,0.00,401.000000,,2013-05-30 19:23:00,
2013-05-30 15:32:00,85.0,66.0,-100.00,SSE,161,6.0,11.0,53,0.00,,,0.00,401.000000,,2013-05-30 19:32:00,
2013-05-30 15:42:00,85.0,66.0,-100.00,SSE,161,6.0,11.0,53,0.00,,,0.00,401.000000,,2013-05-30 19:42:00,
2013-05-30 15:52:00,85.0,66.0,-100.00,SSE,161,6.0,11.0,53,0.00,,,0.00,401.000000,,2013-05-30 19:52:00,
2013-05-30 16:23:00,85.0,66.0,-100.00,South,172,5.0,13.0,53,0.00,,,0.00,371.000000,,2013-05-30 20:23:00,
2013-05-30 16:33:00,85.0,66.0,-100.00,South,172,5.0,13.0,53,0.00,,,0.00,371.000000,,2013-05-30 20:33:00,
2013-05-30 16:42:00,85.0,66.0,-100.00,South,172,5.0,13.0,53,0.00,,,0.00,371.000000,,2013-05-30 20:42:00,
2013-05-30 16:52:00,85.0,66.0,-100.00,South,172,5.0,13.0,53,0.00,,,0.00,371.000000,,2013-05-30 20:52:00,
2013-05-30 17:11:00,87.0,66.0,-100.00,South,186,5.0,16.0,50,0.00,,,0.00,436.000000,,2013-05-30 21:11:00,
2013-05-30 17:22:00,87.0,66.0,-100.00,South,186,5.0,16.0,50,0.00,,,0.00,436.000000,,2013-05-30 21:22:00,
2013-05-30 17:33:00,87.0,66.0,-100.00,South,186,5.0,16.0,50,0.00,,,0.00,436.000000,,2013-05-30 21:33:00,
2013-05-30 17:43:00,87.0,66.0,-100.00,South,186,5.0,16.0,50,0.00,,,0.00,436.000000,,2013-05-30 21:43:00,
2013-05-30 17:53:00,87.0,66.0,-100.00,South,186,5.0,16.0,50,0.00,,,0.00,436.000000,,2013-05-30 21:53:00,
2013-05-30 18:12:00,83.0,66.0,-100.00,SE,141,4.0,13.0,57,0.00,,,0.00,254.000000,,2013-05-30 22:12:00,
2013-05-30 18:23:00,83.0,66.0,-100.00,SE,141,4.0,13.0,57,0.00,,,0.00,254.000000,,2013-05-30 22:23:00,
2013-05-30 18:33:00,83.0,66.0,-100.00,SE,141,4.0,13.0,57,0.00,,,0.00,254.000000,,2013-05-30 22:33:00,
2013-05-30 18:42:00,83.0,66.0,-100.00,SE,141,4.0,13.0,57,0.00,,,0.00,254.000000,,2013-05-30 22:42:00,
2013-05-30 18:52:00,83.0,66.0,-100.00,SE,141,4.0,13.0,57,0.00,,,0.00,254.000000,,2013-05-30 22:52:00,
2013-05-30 19:22:00,83.0,66.0,-100.00,SSE,149,5.0,10.0,57,0.00,,,0.00,172.000000,,2013-05-30 23:22:00,
2013-05-30 19:32:00,83.0,66.0,-100.00,SSE,149,5.0,10.0,57,0.00,,,0.00,172.000000,,2013-05-30 23:32:00,
2013-05-30 19:42:00,83.0,66.0,-100.00,SSE,149,5.0,10.0,57,0.00,,,0.00,172.000000,,2013-05-30 23:42:00,
2013-05-30 19:52:00,83.0,66.0,-100.00,SSE,149,5.0,10.0,57,0.00,,,0.00,172.000000,,2013-05-30 23:52:00,
2013-05-30 20:22:00,81.0,66.0,-100.00,SSE,159,3.0,10.0,60,0.00,,,0.00,67.000000,,2013-05-31 00:22:00,
2013-05-30 20:32:00,81.0,66.0,-100.00,SSE,159,3.0,10.0,60,0.00,,,0.00,67.000000,,2013-05-31 00:32:00,
2013-05-30 20:42:00,81.0,66.0,-100.00,SSE,159,3.0,10.0,60,0.00,,,0.00,67.000000,,2013-05-31 00:42:00,
2013-05-30 20:52:00,81.0,66.0,-100.00,SSE,159,3.0,10.0,60,0.00,,,0.00,67.000000,,2013-05-31 00:52:00,
2013-05-30 21:21:00,78.0,64.0,-100.00,ESE,116,3.0,7.0,63,0.00,,,0.00,18.000000,,2013-05-31 01:21:00,
2013-05-30 21:32:00,78.0,64.0,-100.00,ESE,116,3.0,7.0,63,0.00,,,0.00,18.000000,,2013-05-31 01:32:00,
2013-05-30 21:42:00,78.0,64.0,-100.00,ESE,116,3.0,7.0,63,0.00,,,0.00,18.000000,,2013-05-31 01:42:00,
2013-05-30 21:52:00,78.0,64.0,-100.00,ESE,116,3.0,7.0,63,0.00,,,0.00,18.000000,,2013-05-31 01:52:00,
2013-05-30 22:11:00,75.0,64.0,-100.00,SE,145,2.0,6.0,68,0.00,,,0.00,0.000000,,2013-05-31 02:11:00,
2013-05-30 22:22:00,75.0,64.0,-100.00,SE,145,2.0,6.0,68,0.00,,,0.00,0.000000,,2013-05-31 02:22:00,
2013-05-30 22:32:00,75.0,64.0,-100.00,SE,145,2.0,6.0,68,0.00,,,0.00,0.000000,,2013-05-31 02:32:00,
2013-05-30 22:42:00,75.0,64.0,-100.00,SE,145,2.0,6.0,68,0.00,,,0.00,0.000000,,2013-05-31 02:42:00,
2013-05-30 22:51:00,75.0,64.0,-100.00,SE,145,2.0,6.0,68,0.00,,,0.00,0.000000,,2013-05-31 02:51:00,
2013-05-30 23:22:00,75.0,63.0,-100.00,SSE,150,4.0,9.0,67,0.00,,,0.00,0.000000,,2013-05-31 03:22:00,
2013-05-30 23:33:00,75.0,63.0,-100.00,SSE,150,4.0,9.0,67,0.00,,,0.00,0.000000,,2013-05-31 03:33:00,
2013-05-30 23:43:00,75.0,63.0,-100.00,SSE,150,4.0,9.0,67,0.00,,,0.00,0.000000,,2013-05-31 03:43:00,
2013-05-30 23:53:00,75.0,63.0,-100.00,SSE,150,4.0,9.0,67,0.00,,,0.00,0.000000,,2013-05-31 03:53:00,